EHI
0 0 0 0 0 0 0 0 0 0 0 0 0 0 0 0 0 0 0 0 0 0 0 0 0 0 0 0 0 0 0 0 0 0 0 0 0 0 0 0 0 0 0 0 0 0 0 0 0
0 0 0 0 0 0 0 0 0 0 0 0 0 0 0 0 0 0 0 0 0 0 0 0 0 0 0 0 0 0 0 0 0 0 0 0 0 0 0 0 0 0 0 0 0 0 0 0 0
0 0 0 0 0 0 0 0 0 0 0 0 0 0 0 0 0 0 0 0 0 0 0 0 0 0 0 0 0 0 0 0 0 0 0 0 0 0 0 0 0 0 0 0 0 0 0 0 0
0 0 0 0 0 0 0 0 0 0 0 0 0 0 0 0 0 0 0 0 0 0 0 0 0 0 0 0 0 0 0 0 0 0 0 0 0 0 0 0 0 0 0 0 0 0 0 0 0
0 0 0 0 0 0 0 0 0 0 0 0 0 0 0 0 0 0 0 0 0 0 0 0 0 0 0 0 0 0 0 0 0 0 0 0 0 0 0 0 0 0 0 0 0 0 0 0 0
0 0 0 0 0 0 0 0 0 0 0 0 0 0 0 0 0 0 0 0 0 0 0 0 0 0 0 0 0 0 0 0 0 0 0 0 0 0 0 0 0 0 0 0 0 0 0 0 0
0 0 0 0 0 0 0 0 0 0 0 0 0 0 0 0 0 0 0 0 0 0 0 0 0 0 0 0 0 0 0 0 0 0 0 0 0 0 0 0 0 0 0 0 0 0 0 0 0
0 0 0 0 0 0 0 0 0 0 0 0 0 0 0 0 0 0 0 0 0 0 0 0 0 0 0 0 0 0 0 0 0 0 0 0 0 0 0 0 0 0 0 0 0 0 0 0 0
0 0 0 0 0 0 0 0 0 0 0 0 0 0 0 0 0 0 0 0 0 0 0 0 0 0 0 0 0 0 0 0 0 0 0 0 0 0 0 0 0 0 0 0 0 0 0 0 0
0 0 0 0 0 0 0 0 0 0 0 0 0 0 0 0 0 0 0 0 0 0 0 0 0 0 0 0 0 0 0 0 0 0 0 0 0 0 0 0 0 0 0 0 0 0 0 0 0
0 0 0 0 0 0 0 0 0 0 0 0 0 0 0 0 0 0 0 0 0 0 0 0 0 0 0 0 0 0 0 0 0 0 0 0 0 0 0 0 0 0 0 0 0 0 0 0 0
0 0 0 0 0 0 0 0 0 0 0 0 0 0 0 0 0 0 0 0 0 0 0 0 0 0 0 0 0 0 0 0 0 0 0 0 0 0 0 0 0 0 0 0 0 0 0 0 0
0 0 0 0 0 0 0 0 0 0 0 0 0 0 0 0 0 0 0 0 0 0 0 0 0 0 0 0 0 0 0 0 0 0 0 0 0 0 0 0 0 0 0 0 0 0 0 0 0
0 0 0 0 0 0 0 0 0 0 0 0 0 0 0 0 0 0 0 0 0 0 0 0 0 0 0 0 0 0 0 0 0 0 0 0 0 0 0 0 0 0 0 0 0 0 0 0 0
0 0 0 0 0 0 0 0 0 0 0 0 0 0 0 0 0 0 0 0 0 0 0 0 0 0 0 0 0 0 0 0 0 0 0 0 0 0 0 0 0 0 0 0 0 0 0 0 0
0 0 0 0 0 0 0 0 0 0 0 0 0 0 0 0 0 0 0 0 0 0 0 0 0 0 0 0 0 0 0 0 0 0 0 0 0 0 0 0 0 0 0 0 0 0 0 0 0
0 0 0 0 0 0 0 0 0 0 0 0 0 0 0 0 0 0 0 0 0 0 0 0 0 0 0 0 0 0 0 0 0 0 0 0 0 0 0 0 0 0 0 0 0 0 0 0 0
0 0 0 0 0 0 0 0 0 0 0 0 0 0 0 0 0 0 0 0 0 0 0 0 0 0 0 0 0 0 0 0 0 0 0 0 0 0 0 0 0 0 0 0 0 0 0 0 0
0 0 0 0 0 0 0 0 0 0 0 0 0 0 0 0 0 0 0 0 0 0 0 0 0 0 0 0 0 0 0 0 0 0 0 0 0 0 0 0 0 0 0 0 0 0 0 0 0
0 0 0 0 0 0 0 0 0 0 0 0 0 0 0 0 0 0 0 0 0 0 0 0 0 0 0 0 0 0 0 0 0 0 0 0 0 0 0 0 0 0 0 0 0 0 0 0 0
0 0 0 0 0 0 0 0 0 0 0 0 0 0 0 0 0 0 0 0 0 0 0 0 0 0 0 0 0 0 0 0 0 0 0 0 0 0 0 0 0 0 0 0 0 0 0 0 0
0 0 0 0 0 0 0 0 0 0 0 0 0 0 0 0 0 0 0 0 0 0 0 0 0 0 0 0 0 0 0 0 0 0 0 0 0 0 0 0 0 0 0 0 0 0 0 0 0
0 0 0 0 0 0 0 0 0 0 0 0 0 0 0 0 0 0 0 0 0 0 0 0 0 0 0 0 0 0 0 0 0 0 0 0 0 0 0 0 0 0 0 0 0 0 0 0 0
0 0 0 0 0 0 0 0 0 0 0 0 0 0 0 0 0 0 0 0 0 0 0 0 0 0 0 0 0 0 0 0 0 0 0 0 0 0 0 0 0 0 0 0 0 0 0 0 0
0 0 0 0 0 0 0 0 0 0 0 0 0 0 0 0 0 0 0 0 0 0 0 0 0 0 0 0 0 0 0 0 0 0 0 0 0 0 0 0 0 0 0 0 0 0 0 0 0
0 0 0 0 0 0 0 0 0 0 0 0 0 0 0 0 0 0 0 0 0 0 0 0 0 0 0 0 0 0 0 0 0 0 0 0 0 0 0 0 0 0 0 0 0 0 0 0 0
0 0 0 0 0 0 0 0 0 0 0 0 0 0 0 0 0 0 0 0 0 0 0 0 0 0 0 0 0 0 0 0 0 0 0 0 0 0 0 0 0 0 0 0 0 0 0 0 0
0 0 0 0 0 0 0 0 0 0 0 0 0 0 0 0 0 0 0 0 0 0 0 0 0 0 0 0 0 0 0 0 0 0 0 0 0 0 0 0 0 0 0 0 0 0 0 0 0
0 0 0 0 0 0 0 0 0 0 0 0 0 0 0 0 0 0 0 0 0 0 0 0 0 0 0 0 0 0 0 0 0 0 0 0 0 0 0 0 0 0 0 0 0 0 0 0 0
0 0 0 0 0 0 0 0 0 0 0 0 0 0 0 0 0 0 0 0 0 0 0 0 0 0 0 0 0 0 0 0 0 0 0 0 0 0 0 0 0 0 0 0 0 0 0 0 0
Wind_Speed
4 3 1 2 3 8 9 7 6 7 5 6 7 7 8 8 7 8 5 9 11 12 13 15 20 20 20 21 22 22 23 23 24 24 25 25 26 26 25 26 25 25 25 25 25 25 25 25 24
4 2 1 2 2 8 8 6 8 7 10 9 7 6 7 8 7 7 4 8 10 11 12 15 20 20 20 21 22 22 22 23 23 24 24 25 25 26 25 26 26 25 25 24 24 25 25 25 24
5 5 5 5 7 6 10 9 12 12 9 4 5 5 5 7 6 5 6 7 9 11 12 15 20 20 20 20 21 21 21 21 22 23 23 24 24 25 24 25 25 25 25 24 24 24 24 24 24
2 4 6 9 12 7 9 13 12 12 7 4 6 8 6 5 4 6 6 7 9 11 12 15 20 20 19 20 20 20 21 21 22 22 23 24 24 25 25 24 24 24 24 24 24 25 24 24 24
2 4 7 9 9 7 8 11 11 7 8 7 7 8 8 6 7 7 6 8 10 11 12 13 19 19 18 19 20 20 21 21 22 23 23 24 24 25 24 24 25 24 24 24 24 24 24 24 24
4 4 7 9 9 8 8 7 7 6 7 7 8 9 8 8 7 6 5 6 8 10 11 11 15 17 17 18 19 19 20 20 21 22 23 23 23 24 24 24 25 25 25 25 25 24 24 24 24
4 5 8 11 11 8 7 6 7 7 8 8 7 8 10 10 7 6 4 5 7 9 10 11 11 12 12 14 17 17 18 19 19 20 22 23 22 22 23 23 24 24 24 25 25 25 25 24 24
4 7 9 8 9 8 9 6 4 5 7 6 5 6 9 13 10 6 4 4 6 8 9 10 11 11 10 9 13 15 15 17 17 18 20 21 19 20 20 20 23 23 23 23 24 24 25 25 23
1 5 6 7 7 9 10 8 5 3 8 5 3 1 7 15 11 5 2 3 6 7 8 9 10 10 10 9 9 11 12 14 16 15 19 18 14 14 15 19 22 22 22 22 22 23 23 23 19
5 5 6 3 3 9 12 8 10 8 9 7 7 8 13 13 10 6 2 4 6 8 9 8 9 10 10 8 7 7 8 10 11 12 14 12 12 12 15 18 20 21 21 21 20 22 19 16 12
9 8 7 5 6 11 11 10 9 10 8 9 13 17 15 12 9 6 3 3 5 7 8 8 8 9 9 7 7 6 6 7 9 12 13 12 10 10 10 9 11 13 15 13 15 15 11 12 11
10 9 7 9 7 9 10 10 8 10 3 7 14 17 15 13 10 7 4 3 4 6 8 8 8 8 9 8 7 7 6 6 7 9 12 10 8 9 10 9 11 10 8 11 12 10 14 15 14
9 8 7 9 8 8 9 8 6 8 3 10 15 15 14 12 10 7 4 3 3 6 7 7 7 9 9 8 7 7 8 8 9 8 9 11 9 10 11 10 10 11 10 11 12 13 15 15 14
10 11 10 8 7 6 7 6 6 8 10 14 15 15 13 12 11 8 6 2 3 4 5 7 8 9 9 8 8 7 7 8 8 8 10 11 10 10 11 11 11 11 11 11 12 14 14 13 12
10 10 8 5 5 5 5 7 10 11 15 16 16 14 13 12 11 9 6 3 2 3 4 7 8 9 10 9 9 7 7 8 8 8 9 11 11 12 12 11 11 11 12 14 13 15 13 12 13
5 6 5 6 5 5 7 7 7 14 17 17 16 14 13 13 12 9 7 4 2 1 4 6 6 8 10 9 9 7 7 8 7 7 8 11 12 13 12 11 11 12 12 12 12 12 13 13 13
4 3 2 5 7 6 8 8 7 14 17 17 16 15 14 13 13 10 8 6 3 1 4 6 7 9 9 10 8 8 7 7 7 7 8 11 13 14 13 11 11 13 12 12 12 12 13 14 14
1 2 3 2 6 8 11 12 6 13 17 17 16 15 15 14 14 11 9 7 4 1 3 5 7 8 9 7 7 7 8 7 7 7 9 13 12 14 13 11 13 13 12 12 12 15 15 14 14
1 3 5 2 3 7 12 15 12 12 16 17 16 16 16 15 12 11 10 8 5 2 3 5 7 8 7 6 7 8 8 7 7 7 11 12 13 14 13 11 12 12 12 14 16 15 16 14 13
2 5 4 1 2 6 11 16 12 11 16 16 17 17 16 15 13 13 12 9 6 2 2 5 7 8 8 7 7 7 9 7 7 7 9 11 13 13 11 13 12 13 12 15 15 15 13 13 12
3 4 5 6 1 4 9 8 3 3 8 13 15 16 15 15 15 14 13 10 6 2 2 4 6 7 7 8 6 7 7 7 6 9 8 11 12 13 13 14 13 14 13 13 16 15 16 14 13
2 1 4 5 6 3 4 6 2 2 5 10 14 16 16 14 14 14 12 10 6 3 0 3 5 6 7 8 8 10 9 9 10 9 9 12 12 12 13 14 15 14 13 15 15 15 14 15 13
2 1 3 3 4 5 2 6 2 2 3 4 9 14 14 13 13 13 12 9 6 4 1 3 5 6 7 8 9 10 9 8 8 10 11 11 11 12 13 14 14 15 13 16 17 16 15 12 13
1 3 3 4 4 3 2 5 5 2 1 2 2 6 11 12 12 12 11 9 6 5 2 2 4 5 7 8 9 9 11 11 12 12 11 11 10 10 13 14 14 15 14 15 16 15 16 13 14
3 5 4 3 3 3 2 6 8 1 4 6 6 4 7 11 13 13 12 10 7 5 3 2 4 6 7 8 8 9 10 11 12 12 11 12 10 11 14 15 15 14 15 16 15 14 13 13 13
1 4 5 5 6 6 2 7 5 1 3 5 6 5 6 12 13 13 12 9 7 5 3 2 4 6 7 8 8 8 9 8 8 11 11 11 10 11 14 15 15 16 16 15 14 12 12 11 12
2 2 2 4 3 7 6 6 8 4 7 8 8 7 9 12 14 13 11 9 7 5 3 1 3 5 6 7 8 8 9 9 10 11 10 9 10 11 14 15 15 15 16 15 15 11 12 11 11
3 4 4 3 5 7 8 7 5 5 5 6 9 11 11 13 14 13 11 10 7 6 4 2 2 5 6 7 7 7 9 9 10 10 11 11 12 13 14 14 15 15 15 15 14 13 12 12 11
6 4 3 2 3 5 7 7 4 8 7 7 8 9 11 15 15 13 11 9 7 6 5 2 1 4 6 6 7 8 8 9 10 9 10 11 12 13 13 14 14 15 15 14 13 13 13 13 12
4 5 6 5 4 5 6 10 3 7 7 8 9 7 10 13 14 13 11 10 8 7 6 4 2 4 5 6 7 7 8 9 9 10 10 11 12 12 13 13 13 13 14 13 13 13 12 12 13
Wind_Direction
95 100 182 224 100 73 78 78 104 118 91 81 70 72 75 54 32 77 70 12 359 355 352 349 5 6 10 13 11 12 11 12 11 12 11 9 8 6 6 5 2 1 359 357 357 354 352 352 351
77 116 46 17 87 99 90 112 116 103 114 116 88 88 91 84 66 80 52 15 5 5 358 357 6 7 10 13 11 11 10 11 11 11 9 9 7 4 4 3 360 358 357 356 355 352 350 349 348
80 59 51 56 64 83 115 130 120 115 127 134 108 71 72 89 87 80 46 18 13 16 8 3 7 8 10 13 12 11 10 11 11 11 9 8 6 3 2 2 357 356 355 354 353 351 348 347 346
99 78 67 65 82 69 119 138 135 137 138 126 132 113 92 65 79 85 62 29 22 21 14 9 10 11 12 14 13 12 11 11 10 8 7 6 4 1 359 360 355 354 353 352 351 348 346 345 344
68 79 82 83 86 110 124 140 154 152 142 137 141 119 108 108 109 94 65 35 25 22 16 13 13 13 13 15 15 12 11 10 8 5 3 2 360 357 355 356 352 351 351 349 349 345 344 342 341
80 80 103 115 119 136 146 163 172 150 134 140 143 124 119 139 130 93 64 43 31 22 17 16 15 14 13 15 15 11 10 8 6 2 0 358 355 353 351 353 348 347 347 346 345 342 341 339 338
80 79 102 126 137 153 148 162 181 156 146 143 143 131 136 160 134 113 81 49 36 25 20 15 11 10 9 13 14 10 9 5 3 360 357 354 351 349 347 348 345 343 343 342 341 338 337 336 333
63 98 110 132 146 143 140 139 139 157 127 125 170 160 161 163 149 140 97 51 36 27 21 13 9 7 360 4 13 6 6 3 360 357 355 352 348 346 343 343 340 338 338 337 335 334 333 332 327
308 99 125 145 158 146 153 149 129 105 130 143 172 148 133 143 155 166 152 71 40 28 21 14 4 2 357 356 0 358 1 1 357 356 354 350 346 343 339 338 335 335 334 333 330 330 328 326 320
24 87 99 88 135 149 160 164 151 161 163 164 160 136 137 149 165 169 135 50 30 22 17 13 2 357 356 354 353 355 359 357 357 352 350 346 341 336 334 330 331 331 330 328 328 327 324 323 319
51 80 107 97 110 141 151 155 165 177 187 191 176 159 158 164 170 173 143 63 35 21 20 12 2 358 0 356 355 357 353 351 349 348 345 339 336 331 330 327 326 326 325 326 325 321 323 319 316
84 77 99 117 125 145 153 155 177 198 225 175 166 160 165 174 179 179 155 88 43 24 18 7 2 2 2 359 355 356 350 345 341 339 340 339 332 327 327 322 321 320 321 321 319 315 316 313 309
86 106 94 108 120 133 148 172 187 199 170 158 156 166 176 181 180 173 155 120 46 25 14 5 1 5 2 359 353 353 348 342 335 333 335 337 328 325 323 318 317 314 315 315 315 312 313 309 307
105 114 118 123 127 149 167 178 206 193 166 163 169 179 186 188 187 181 179 143 53 21 8 360 5 5 359 358 353 348 342 337 330 331 333 332 327 322 319 315 314 312 313 314 308 308 307 305 305
123 119 131 149 155 157 186 209 218 175 173 177 184 189 192 196 195 196 177 150 73 14 360 5 358 357 356 353 351 344 340 335 329 329 328 331 328 323 320 314 313 312 314 311 306 305 303 303 303
150 167 179 162 175 166 224 259 178 169 183 191 195 196 199 201 203 194 176 164 142 348 356 4 354 349 352 351 345 341 335 333 328 329 328 334 331 328 322 316 314 314 313 309 307 305 307 305 304
188 227 240 165 190 186 227 261 154 179 194 202 203 204 205 205 204 194 185 175 174 318 353 355 353 348 347 343 338 334 330 329 330 332 334 337 333 331 324 317 314 317 313 309 307 307 307 305 304
156 261 269 256 173 209 234 252 199 193 206 213 212 212 213 213 208 196 187 180 181 208 348 350 348 347 343 340 335 333 333 333 334 334 337 335 333 331 326 317 319 318 312 310 310 309 305 303 302
325 280 294 343 134 235 254 264 254 204 210 221 220 218 220 220 210 191 188 185 190 203 338 347 345 348 346 342 339 335 333 330 329 332 333 332 332 331 326 322 320 317 312 311 308 307 305 304 305
237 278 293 257 155 260 291 282 269 225 216 222 227 225 224 221 204 193 191 191 198 213 333 338 347 345 349 344 333 326 320 317 320 327 331 333 331 328 324 321 318 315 311 308 308 308 304 302 304
252 286 312 313 297 227 296 280 169 177 226 231 236 237 231 222 209 196 193 193 194 205 341 343 341 338 347 344 333 327 321 320 332 335 332 331 327 324 321 319 318 313 312 308 308 306 301 300 301
300 349 294 291 291 309 336 312 134 161 232 230 230 230 229 221 212 196 190 188 186 169 136 327 331 336 350 347 340 336 331 331 335 333 326 325 323 321 321 320 318 315 312 309 308 304 299 295 292
345 355 272 261 269 273 220 287 300 141 252 231 229 227 225 216 204 190 183 175 164 158 193 320 322 339 353 349 341 333 330 330 327 328 325 326 323 322 323 324 321 318 315 312 309 307 299 291 287
206 202 177 201 239 262 86 296 291 171 236 253 227 231 219 206 192 180 168 162 164 168 194 297 317 347 354 345 338 334 332 332 328 331 328 328 324 323 328 329 325 323 320 316 313 308 301 293 286
236 288 296 286 279 348 90 267 266 306 254 265 270 260 213 193 183 174 171 174 179 185 200 273 323 352 351 340 334 332 331 329 328 329 327 326 324 325 328 329 327 325 323 321 319 313 306 299 291
52 321 348 321 320 321 214 259 276 229 252 259 262 263 208 190 185 181 178 178 180 182 201 264 344 352 342 332 330 326 329 327 323 324 322 321 321 322 322 325 324 325 327 327 326 319 315 304 296
167 123 8 281 279 279 270 269 284 207 247 240 239 230 207 193 188 184 178 179 180 180 193 269 351 341 331 324 323 322 330 327 322 321 320 319 320 320 321 322 325 327 330 331 331 327 324 315 304
353 136 176 240 298 294 290 273 266 270 269 230 230 228 212 194 189 184 180 181 178 177 186 197 339 327 318 315 320 320 324 324 320 318 321 322 322 322 322 325 327 329 330 333 334 333 336 331 325
162 167 182 183 264 276 296 288 206 261 283 271 258 232 208 194 190 185 181 178 174 179 190 196 287 306 308 314 316 320 323 322 319 318 322 323 323 325 326 327 327 329 331 331 331 334 336 337 337
238 208 194 229 210 230 269 274 207 243 260 257 261 247 209 195 188 183 179 177 181 190 192 198 249 288 304 308 311 317 320 320 319 321 323 324 325 327 327 327 327 327 329 326 325 332 336 337 337